Regional Weather Roundup
Issued by NWS Sterling, VA

Home | Current Version | Previous Version | Text Only | Print | Product List | Glossary On
Versions: 1 2 3 4 5 6 7 8 9 10 11 12 13 14 15 16 17 18 19 20 21 22 23 24 25 26 27 28 29 30 31 32 33 34 35 36 37 38 39 40 41 42 43 44 45 46 47 48 49 50
000
ASUS41 KLWX 011410
RWRLWX

REGIONAL WEATHER ROUNDUP
NATIONAL WEATHER SERVICE BALTIMORE MD/WASHINGTON DC
1000 AM EDT MON SEP 01 2014

Note: "FAIR" indicates few or no clouds below 12,000 feet
with no significant weather and/or obstructions to visibility.
 TC=TEMPERATURE CELSIUS

 * =Non NWS site. Station does not report precipitation (e.g. rain,
    snow, etc.), thunder, or fog.

DCZ001-MDZ009-015-VAZ040>042-051-053>054-011500-
WASHINGTON METRO

CITY           SKY/WX    TMP DP  RH WIND       PRES   REMARKS
WASHINGTON NAT MOSUNNY   82  73  74 SW7       30.02F
DULLES         MOSUNNY   78  73  84 SW8       30.03S
ANDREWS AFB    MOSUNNY   81  74  79 SW8       30.03S
QUANTICO       MOSUNNY   79  74  84 S8        30.03F
COLLEGE PARK*  MOSUNNY   81  73  78 SW5       30.02S
LEESBURG*      MOSUNNY   81  77  89 W3        30.04S
GAITHERSBURG*  MOSUNNY   79  73  83 SW5       30.07S

$$

MDZ006>007-011-014-011500-
BALTIMORE METRO

CITY           SKY/WX    TMP DP  RH WIND       PRES   REMARKS
BWI AIRPORT    PTSUNNY   80  73  79 W5        30.02F
MD SCIENCE CTR   N/A     81  72  74 MISG      30.01F
MARTIN STATE   MOSUNNY   81  75  83 CALM      30.03F
ANNAPOLIS      MOSUNNY   80  72  76 CALM      30.02S
FORT MEADE*    MOSUNNY   77  73  88 W5        30.04S

$$

MDZ012-015-019>023-011500-
MARYLAND EASTERN SHORE

CITY           SKY/WX    TMP DP  RH WIND       PRES   REMARKS
OCEAN CITY     PTSUNNY   82  74  76 SW9       30.05S
SALISBURY      PTSUNNY   83  75  77 S6        30.04S HX  90
BAY BRIDGE AP*   N/A     79  73  83 CALM      30.02S
CAMBRIDGE*     PTSUNNY   79  72  78 CALM      30.02S
EASTON*        PTSUNNY   81  81 100 CALM      30.06S HX  91

$$

MDZ017>025-011500-
SOUTHERN MARYLAND

CITY           SKY/WX    TMP DP  RH WIND       PRES   REMARKS
PATUXENT RIVER CLOUDY    78  74  87 S9        30.02S
ST INIGOES     PTSUNNY   79  73  82 S7        30.02F
LEONARDTOWN*   PTSUNNY   77  72  83 S6        30.04S

$$

MDZ003>005-011500-
NORTH CENTRAL MARYLAND

CITY           SKY/WX    TMP DP  RH WIND       PRES   REMARKS
FREDERICK*     CLOUDY    77  77 100 CALM      30.05F
HAGERSTOWN APT CLOUDY    75  71  87 CALM      30.03F
WESTMINSTER*   PTSUNNY   75  72  88 SW5       30.05S

$$

MDZ501>502-011500-
WESTERN MARYLAND

CITY           SKY/WX    TMP DP  RH WIND       PRES   REMARKS
OAKLAND*       CLOUDY    66 N/A N/A W6        30.13S FOG
CUMBERLAND*    CLOUDY    77  73  88 CALM      30.08S

$$

VAZ025>031-011500-
SHENANDOAH VALLEY

CITY           SKY/WX    TMP DP  RH WIND       PRES   REMARKS
WINCHESTER*    CLOUDY    77  70  78 SW8       30.04S
STAUNTON*      PTSUNNY   82  66  60 S9        30.09F

$$

WVZ021-048>050-054>055-011500-
EASTERN WEST VIRGINIA PANHANDLE

CITY           SKY/WX    TMP DP  RH WIND       PRES   REMARKS
MARTINSBURG    CLOUDY    80  68  66 CALM      30.03F
PETERSBURG*    NOT AVBL

$$

VAZ036>039-050-011500-
CENTRAL FOOTHILLS

CITY           SKY/WX    TMP DP  RH WIND       PRES   REMARKS
CHARLOTTESVILL SUNNY     80  73  79 S7        30.05S
ORANGE*        MOSUNNY   77  73  88 S6        30.06S

$$

VAZ055>057-011500-
NORTH AND CENTRAL PIEDMONT

CITY           SKY/WX    TMP DP  RH WIND       PRES   REMARKS
FREDERICKSBRG* PTSUNNY   79  77  95 SW3       30.03R
STAFFORD*      MOSUNNY   79  79 100 SW3       30.07S

$$

NCZ024-NYZ072-PAZ021-071-VAZ022-071-011500-
OTHER REGIONAL OBSERVATIONS

CITY           SKY/WX    TMP DP  RH WIND       PRES   REMARKS
NEW YORK CITY  MOSUNNY   79  70  74 CALM      30.03S
PHILADELPHIA   CLOUDY    76  73  91 SW5       30.03R FOG
PITTSBURGH     PTSUNNY   72  70  93 SW6       30.02F
ROANOKE        MOSUNNY   79  67  66 W8        30.13F
RICHMOND       PTSUNNY   84  73  69 SW8       30.04F HX  90
RALEIGH        MOSUNNY   81  73  76 SW6       30.11F

$$

ANZ530>537-011500-
MARINE OBSERVATIONS

STATION/POSITION TIME  TEMP    WIND        PRES
                       AIR SEA DIR/SP/G
                 (UTC) (F)     (DEG/KT/KT) (MB)
THOMAS PT LIGHT  1400   77 78   40/  2/  3 1017.5S
BALT KEY BRIDGE  1400           CALM  /  2 1016.3S
COVE POINT       1400   78     210/  9/ 11 1016.3S
LEWISETTA        1400   81 80  200/  6/  7 1016.4F
SOLOMONS ISLAND  1400      80                N/A
PINEY POINT      1400          180/  2/  3   N/A

$$



USA.gov is the U.S. government's official web portal to all federal, state and local government web resources and services.